TimeEST,TemperatureF,Dew PointF,Humidity,Sea Level PressureIn,VisibilityMPH,Wind Direction,Wind SpeedMPH,Gust SpeedMPH,PrecipitationIn,Events,Conditions,WindDirDegrees,DateUTC
12:15 AM,41.0,39.2,93,30.01,10.0,SW,4.6,-,N/A,,Clear,220,2012-11-09 05:15:00
12:35 AM,41.0,39.2,93,30.02,9.0,SW,3.5,-,N/A,,Clear,220,2012-11-09 05:35:00
12:55 AM,39.2,39.2,100,30.02,8.0,SW,4.6,-,N/A,,Clear,220,2012-11-09 05:55:00
1:15 AM,39.2,39.2,100,30.02,7.0,SSW,4.6,-,N/A,,Scattered Clouds,210,2012-11-09 06:15:00
1:35 AM,39.2,39.2,100,30.02,7.0,SSW,3.5,-,N/A,,Overcast,210,2012-11-09 06:35:00
1:55 AM,39.2,39.2,100,30.02,8.0,SW,3.5,-,N/A,,Overcast,220,2012-11-09 06:55:00
2:15 AM,39.2,39.2,100,30.03,8.0,WSW,3.5,-,N/A,,Overcast,250,2012-11-09 07:15:00
2:35 AM,39.2,39.2,100,30.04,8.0,SW,3.5,-,N/A,,Overcast,230,2012-11-09 07:35:00
2:55 AM,41.0,39.2,93,30.04,7.0,SW,3.5,-,N/A,,Overcast,230,2012-11-09 07:55:00
3:15 AM,41.0,39.2,93,30.04,7.0,SW,4.6,-,N/A,,Overcast,230,2012-11-09 08:15:00
3:35 AM,41.0,39.2,93,30.04,8.0,SW,3.5,-,N/A,,Overcast,230,2012-11-09 08:35:00
3:55 AM,41.0,39.2,93,30.04,8.0,WSW,4.6,-,N/A,,Overcast,240,2012-11-09 08:55:00
4:15 AM,41.0,39.2,93,30.04,8.0,WSW,4.6,-,N/A,,Overcast,250,2012-11-09 09:15:00
4:35 AM,41.0,39.2,93,30.05,8.0,WSW,4.6,-,N/A,,Overcast,250,2012-11-09 09:35:00
4:55 AM,41.0,39.2,93,30.05,8.0,WSW,3.5,-,N/A,,Overcast,240,2012-11-09 09:55:00
5:15 AM,41.0,39.2,93,30.05,8.0,WSW,4.6,-,N/A,,Overcast,240,2012-11-09 10:15:00
5:35 AM,41.0,37.4,87,30.06,8.0,WSW,4.6,-,N/A,,Overcast,240,2012-11-09 10:35:00
5:55 AM,41.0,37.4,87,30.06,8.0,WSW,4.6,-,N/A,,Overcast,240,2012-11-09 10:55:00
6:15 AM,39.2,37.4,93,30.06,8.0,WSW,4.6,-,N/A,,Overcast,250,2012-11-09 11:15:00
6:35 AM,39.2,37.4,93,30.06,8.0,SW,3.5,-,N/A,,Overcast,230,2012-11-09 11:35:00
6:55 AM,39.2,37.4,93,30.07,8.0,SW,4.6,-,N/A,,Overcast,230,2012-11-09 11:55:00
7:15 AM,39.2,37.4,93,30.07,8.0,SW,3.5,-,N/A,,Overcast,230,2012-11-09 12:15:00
7:35 AM,39.2,37.4,93,30.07,7.0,SW,4.6,-,N/A,,Overcast,230,2012-11-09 12:35:00
7:55 AM,39.2,37.4,93,30.08,7.0,SW,4.6,-,N/A,,Overcast,230,2012-11-09 12:55:00
8:15 AM,39.2,37.4,93,30.08,8.0,SW,3.5,-,N/A,,Overcast,230,2012-11-09 13:15:00
8:35 AM,39.2,37.4,93,30.09,8.0,WSW,3.5,-,N/A,,Overcast,240,2012-11-09 13:35:00
8:55 AM,39.2,37.4,93,30.09,8.0,WSW,3.5,-,N/A,,Overcast,240,2012-11-09 13:55:00
9:15 AM,41.0,39.2,93,30.09,10.0,WSW,4.6,-,N/A,,Overcast,250,2012-11-09 14:15:00
9:35 AM,41.0,39.2,93,30.09,10.0,WSW,5.8,-,N/A,,Overcast,250,2012-11-09 14:35:00
9:55 AM,42.8,39.2,87,30.09,10.0,West,4.6,-,N/A,,Overcast,260,2012-11-09 14:55:00
10:15 AM,42.8,39.2,87,30.09,10.0,West,4.6,-,N/A,,Overcast,260,2012-11-09 15:15:00
10:35 AM,44.6,41.0,87,30.10,10.0,SW,3.5,-,N/A,,Overcast,230,2012-11-09 15:35:00
10:55 AM,44.6,41.0,87,30.11,10.0,West,4.6,-,N/A,,Overcast,280,2012-11-09 15:55:00
11:15 AM,44.6,41.0,87,30.11,10.0,West,4.6,-,N/A,,Overcast,260,2012-11-09 16:15:00
11:35 AM,44.6,41.0,87,30.11,10.0,Calm,Calm,-,N/A,,Overcast,0,2012-11-09 16:35:00
11:55 AM,44.6,41.0,87,30.11,10.0,West,3.5,-,N/A,,Overcast,280,2012-11-09 16:55:00
12:15 PM,44.6,41.0,87,30.10,10.0,West,4.6,-,N/A,,Overcast,280,2012-11-09 17:15:00
12:35 PM,44.6,41.0,87,30.10,10.0,WNW,3.5,-,N/A,,Overcast,290,2012-11-09 17:35:00
12:55 PM,46.4,41.0,81,30.10,10.0,West,3.5,-,N/A,,Overcast,280,2012-11-09 17:55:00
1:15 PM,46.4,41.0,81,30.09,10.0,WNW,5.8,-,N/A,,Overcast,300,2012-11-09 18:15:00
1:35 PM,46.4,39.2,76,30.09,10.0,WNW,5.8,-,N/A,,Overcast,300,2012-11-09 18:35:00
1:55 PM,46.4,39.2,76,30.09,10.0,NW,5.8,-,N/A,,Overcast,320,2012-11-09 18:55:00
2:15 PM,46.4,37.4,71,30.08,10.0,North,6.9,-,N/A,,Overcast,350,2012-11-09 19:15:00
2:35 PM,46.4,37.4,71,30.09,10.0,NNW,3.5,-,N/A,,Overcast,330,2012-11-09 19:35:00
2:55 PM,46.4,37.4,71,30.09,10.0,North,4.6,-,N/A,,Overcast,350,2012-11-09 19:55:00
3:15 PM,46.4,39.2,76,30.09,10.0,NW,6.9,-,N/A,,Overcast,310,2012-11-09 20:15:00
3:35 PM,46.4,39.2,76,30.10,10.0,WNW,6.9,-,N/A,,Overcast,300,2012-11-09 20:35:00
3:55 PM,46.4,39.2,76,30.10,10.0,NW,3.5,-,N/A,,Overcast,320,2012-11-09 20:55:00
4:15 PM,44.6,39.2,81,30.10,10.0,NNW,4.6,-,N/A,,Overcast,340,2012-11-09 21:15:00
4:35 PM,44.6,39.2,81,30.10,10.0,NW,8.1,-,N/A,,Overcast,320,2012-11-09 21:35:00
4:55 PM,44.6,39.2,81,30.10,10.0,NW,6.9,-,N/A,,Overcast,320,2012-11-09 21:55:00
5:15 PM,44.6,39.2,81,30.10,10.0,NNW,4.6,-,N/A,,Overcast,330,2012-11-09 22:15:00
5:35 PM,44.6,39.2,81,30.11,10.0,NNW,6.9,-,N/A,,Overcast,330,2012-11-09 22:35:00
5:55 PM,44.6,39.2,81,30.12,10.0,NNW,6.9,-,N/A,,Overcast,340,2012-11-09 22:55:00
6:15 PM,42.8,39.2,87,30.12,10.0,NNW,8.1,-,N/A,,Overcast,340,2012-11-09 23:15:00
6:35 PM,42.8,39.2,87,30.13,10.0,NNW,6.9,-,N/A,,Overcast,340,2012-11-09 23:35:00
6:55 PM,42.8,39.2,87,30.14,10.0,NW,5.8,-,N/A,,Overcast,320,2012-11-09 23:55:00
7:15 PM,42.8,39.2,87,30.14,10.0,NW,5.8,-,N/A,,Overcast,320,2012-11-10 00:15:00
7:35 PM,42.8,39.2,87,30.15,10.0,NW,5.8,-,N/A,,Overcast,320,2012-11-10 00:35:00
7:55 PM,42.8,39.2,87,30.14,10.0,NNW,6.9,-,N/A,,Overcast,330,2012-11-10 00:55:00
8:15 PM,42.8,39.2,87,30.14,10.0,NNW,10.4,-,N/A,,Overcast,330,2012-11-10 01:15:00
8:35 PM,42.8,39.2,87,30.15,10.0,NNW,4.6,-,N/A,,Overcast,330,2012-11-10 01:35:00
8:55 PM,42.8,39.2,87,30.15,10.0,NNW,3.5,-,N/A,,Overcast,340,2012-11-10 01:55:00
9:15 PM,42.8,39.2,87,30.15,10.0,Calm,Calm,-,N/A,,Overcast,0,2012-11-10 02:15:00
9:35 PM,42.8,39.2,87,30.15,10.0,Calm,Calm,-,N/A,,Overcast,0,2012-11-10 02:35:00
9:55 PM,42.8,39.2,87,30.16,10.0,North,3.5,-,N/A,,Overcast,10,2012-11-10 02:55:00
10:15 PM,42.8,39.2,87,30.16,10.0,NNE,3.5,-,N/A,,Overcast,30,2012-11-10 03:15:00
10:35 PM,41.0,39.2,93,30.16,10.0,NE,5.8,-,N/A,,Overcast,50,2012-11-10 03:35:00
10:55 PM,39.2,37.4,93,30.16,10.0,NE,6.9,-,N/A,,Scattered Clouds,40,2012-11-10 03:55:00
11:15 PM,39.2,37.4,93,30.16,10.0,NE,8.1,-,N/A,,Clear,50,2012-11-10 04:15:00
11:35 PM,37.4,35.6,93,30.17,10.0,East,6.9,-,N/A,,Scattered Clouds,80,2012-11-10 04:35:00
11:55 PM,37.4,35.6,93,30.17,10.0,ENE,6.9,-,N/A,,Overcast,70,2012-11-10 04:55:00